User: anonymous   Login
Location: ???????
(55.4362°N, 38.1183°E)
Time: 17:20:54
(UTC+00:00)
Language:

Helios 1B rocket - Orbit

View from above orbital plane
View from above orbital plane
View from above satellite
View from above satellite

Ground track
Ground track

The orbit data is extracted from the following two-line orbital elements,

1 25979U 99064C   21265.09367083  .00000100  00000-0  14377-4 0  9999
2 25979  98.1705 208.3426 0005575 197.3907 162.7123 14.96474818183070
Epoch (UTC): 22 September 2021 02:14:53
Eccentricity: 0.0005575
inclination: 98.1705°
perigee height: 574 km
apogee height: 581 km
right ascension of ascending node: 208.3426°
argument of perigee: 197.3907°
revolutions per day: 14.96474818
mean anomaly at epoch: 162.7123°
orbit number at epoch: 18307

The dashed part of the orbit path shows where the satellite is in the earth's shadow,  

DLR